Flag for France Weather past 2 weeks in Amiens, France

Now
55 °F

Partly sunny.


Feels Like: 55 °F
Forecast: 48 / 67 °F
Wind: 3 mph from North

Location: Beauvais Airport

Current Time: May 22, 2015 at 12:39:25 PM

Latest Report: May 22, 2015 at 12:00 PM


Visibility: N/A

Pressure: 30.36 "Hg

Humidity: 77%

Dew point: 48 °F

Location of AmiensLocation

Historic Weather in Amiens — Graph

°F

Amiens temperature yesterday

Maximum temperature yesterday: 64 °F (at 3:00 PM)
Minimum temperature yesterday: 39 °F (at 6:00 AM)
Average temperature yesterday: 53 °F

Past Weeks' High & Low Weather Summary

 TemperatureHumidityPressure
High79 °F (May 11, 5:00 PM)100% (May 10, 3:00 AM)30.39 "Hg (May 10, 3:00 AM)
Low36 °F (May 13, 4:00 AM)42% (May 20, 3:00 PM)29.74 "Hg (May 18, 6:30 PM)
Average54 °F77%30.10 "Hg
* Reported May 7 11:00 AM — May 22 11:00 AM, Amiens, Weather by CustomWeather, © 2015

Note: Actual official high and low records may vary slightly from our data, if they occured in-between our weather recording intervals... More about our weather records

Advertising

Amiens weather history for previous 24 hours

 ConditionsComfort  
Time TempWeatherWind HumidityBarometerVisibility
11:00 AM
Fri, May 22
52 °FPartly sunny.7 mph82%30.36 "HgN/A
10:30 AM52 °FLow clouds.6 mph82%30.36 "HgN/A
10:00 AM52 °FLow clouds.6 mph88%30.36 "Hg6 mi
9:30 AM50 °FLow clouds.3 mph94%30.36 "Hg6 mi
9:00 AM50 °FPartly sunny.3 mph88%30.36 "HgN/A
8:30 AM48 °FSunny.2 mph94%30.36 "Hg10 mi
8:00 AM45 °FSunny.No wind100%30.36 "Hg10 mi
7:30 AM43 °FSunny.No wind100%30.36 "Hg10 mi
7:00 AM37 °FClear.No wind100%30.36 "HgN/A
6:30 AM37 °FClear.No wind93%30.36 "Hg10 mi
6:00 AM36 °FPassing clouds.2 mph93%30.36 "HgN/A
5:30 AM39 °FPassing clouds.2 mph93%30.36 "HgN/A
5:00 AM39 °FPassing clouds.No wind93%30.36 "Hg6 mi
4:30 AM39 °FLight fog.No wind100%30.36 "HgN/A
4:00 AM39 °FPassing clouds.No wind93%30.36 "HgN/A
3:30 AM41 °FQuite cool.2 mph93%30.39 "Hg5 mi
3:00 AM39 °FChilly.3 mph93%30.39 "HgN/A
2:30 AM41 °FQuite cool.2 mph87%30.39 "HgN/A
2:00 AM41 °FClear.No wind93%30.39 "Hg10 mi
1:30 AM43 °FClear.No wind87%30.39 "Hg10 mi
1:00 AM45 °FClear.3 mph93%30.39 "Hg10 mi
12:30 AM45 °FClear.2 mph87%30.39 "Hg10 mi
12:00 AM45 °FClear.3 mph87%30.39 "Hg10 mi
11:30 PM
Thu, May 21
46 °FClear.3 mph93%30.39 "Hg10 mi
11:00 PM46 °FClear.6 mph87%30.39 "Hg10 mi
10:30 PM48 °FSunny.3 mph82%30.39 "Hg10 mi
10:00 PM52 °FSunny.7 mph72%30.39 "Hg10 mi
9:30 PM54 °FSunny.8 mph67%30.36 "Hg10 mi
9:00 PM55 °FSunny.7 mph67%30.36 "Hg10 mi
8:30 PM59 °FSunny.9 mph59%30.36 "Hg10 mi
8:00 PM59 °FPassing clouds.10 mph59%30.36 "HgN/A
7:30 PM61 °FBroken clouds.10 mph59%30.36 "HgN/A
7:00 PM61 °FPassing clouds.12 mph59%30.33 "HgN/A
6:30 PM61 °FSunny.12 mph59%30.33 "Hg10 mi
6:00 PM63 °FPartly sunny.10 mph52%30.33 "HgN/A
5:30 PM64 °FPassing clouds.8 mph46%30.33 "HgN/A
5:00 PM61 °FPassing clouds.8 mph52%30.33 "HgN/A
4:30 PM64 °FPartly sunny.9 mph49%30.33 "HgN/A
4:00 PM61 °FPartly sunny.9 mph55%30.33 "HgN/A
3:30 PM61 °FSunny.12 mph55%30.33 "Hg10 mi
3:00 PM64 °FPassing clouds.3 mph43%30.33 "HgN/A
2:30 PM61 °FPartly sunny.6 mph52%30.33 "HgN/A
2:00 PM61 °FPartly sunny.8 mph48%30.33 "HgN/A
1:30 PM61 °FPartly sunny.7 mph52%30.33 "HgN/A
1:00 PM61 °FPartly sunny.6 mph55%30.33 "HgN/A
12:30 PM59 °FBroken clouds.8 mph55%30.36 "HgN/A
12:00 PM59 °FPartly sunny.6 mph51%30.36 "HgN/A
Weather by CustomWeather, © 2015

See weather overviewHow to use our weather pages